Home > Weather > Langley > Past weeks

Flag for Canada Weather for the Past 2 Weeks in Langley, British Columbia, Canada

Now
50 °F

Cool.


Feels Like: 46 °F
Forecast: 41 / 52 °F
Wind: 10 mph from Northeast

Location: P. Meadows Coastal Station

Current Time: Feb 11, 2016 at 3:31:03 PM

Latest Report: Feb 11, 2016 at 2:00 PM


Visibility: N/A

Pressure: 30.12 "Hg

Humidity: 77%

Dew point: 44 °F

Location of LangleyLocation

Historic Weather in Langley — Graph

°F

Langley Temperature Yesterday

Maximum temperature yesterday: 53 °F (at 4:00 PM)
Minimum temperature yesterday: 38 °F (at 2:00 AM)
Average temperature yesterday: 45 °F

High & Low Weather Summary for the Past Weeks

 TemperatureHumidityPressure
High59 °F (Feb 9, 4:00 PM)100% (Jan 27, 2:00 PM)30.62 "Hg (Jan 27, 2:00 PM)
Low33 °F (Jan 30, 2:00 AM)55% (Feb 9, 4:00 PM)29.60 "Hg (Jan 29, 11:00 AM)
Average43 °F90%30.14 "Hg
* Reported Jan 27 1:00 PM — Feb 11 1:00 PM, Langley, Weather by CustomWeather, © 2016

Note: Actual official high and low records may vary slightly from our data, if they occured in-between our weather recording intervals... More about our weather records

Advertising

Langley Weather History for the Previous 24 Hours

 ConditionsComfort  
Time TempWeatherWind HumidityBarometerVisibility
1:00 PM
Thu, Feb 11
46 °FCool.9 mph97%30.16 "HgN/A
12:00 PM48 °FCool.2 mph84%30.20 "HgN/A
11:00 AM47 °FCool.2 mph91%30.19 "HgN/A
10:00 AM45 °FCool.1 mph92%30.20 "HgN/A
9:00 AM44 °FQuite cool.1 mph99%30.20 "HgN/A
8:00 AM41 °FQuite cool.1 mph99%30.21 "HgN/A
7:00 AM40 °FChilly.1 mph99%30.22 "HgN/A
6:00 AM41 °FQuite cool.1 mph98%30.23 "HgN/A
5:00 AM43 °FQuite cool.6 mph99%30.25 "HgN/A
4:00 AM37 °FChilly.No wind99%30.27 "HgN/A
3:00 AM36 °FChilly.2 mph99%30.29 "HgN/A
2:00 AM38 °FChilly.No wind99%30.29 "HgN/A
1:00 AM40 °FQuite cool.No wind98%30.30 "HgN/A
12:00 AM38 °FChilly.1 mph99%30.32 "HgN/A
11:00 PM
Wed, Feb 10
38 °FChilly.1 mph98%30.30 "HgN/A
10:00 PM41 °FQuite cool.1 mph98%30.29 "HgN/A
9:00 PM42 °FQuite cool.1 mph97%30.28 "HgN/A
8:00 PM45 °FQuite cool.2 mph95%30.26 "HgN/A
7:00 PM48 °FCool.2 mph94%30.24 "HgN/A
6:00 PM49 °FCool.1 mph94%30.23 "HgN/A
5:00 PM51 °FCool.1 mph95%30.21 "HgN/A
4:00 PM53 °FCool.1 mph86%30.20 "HgN/A
3:00 PM51 °FCool.1 mph91%30.18 "HgN/A
Weather by CustomWeather, © 2016

See weather overviewHow to use our weather pages